Location: El Mouella
(16.4949°N, 9.1594°W)
Time: 17:21:49
(UTC+00:00)

Ariane Rocket - Pass Details

Date: 02 June 2020
Orbit: 760 x 770 km, 98.7° (Epoch: 05 July)

Event Time Altitude Azimuth Distance (km) Brightness Sun altitude
Exits shadow 19:55:45 14° 134° (SE) 2,022 4.6 -11.5°
Maximum altitude 19:59:30 34° 74° (ENE) 1,241 3.7 -12.3°
Drops below altitude 10° 20:04:02 10° 11° (N) 2,300 5.7 -13.2°
Sets 20:06:30 0° 2° (N) 3,228 6.6 -13.7°
